Simultaneous Nadir Overpasses (SNOs) Predictions

Prediction of SNOs between AQUA and NOAA-19 Satellite Orbit:

Table of predicted SNOs for the next 14.0 days since TLE Epoch: 1/3/2014
Index Date (AQUA) Time (AQUA) Lat,Lon (AQUA) SZA (AQUA ) Date (NOAA-19) Time (NOAA-19) Lat,Lon (NOAA-19) SZA (NOAA-19 ) Distance(km) Time Diff (sec)
1 01/05/2014 01:54:39 -70.91, -29.27 86.56 01/05/2014 01:54:17 -70.91, -29.23 86.56 1.57 22
2 01/05/2014 02:43:05 67.49, 142.88 90.01 01/05/2014 02:44:19 67.52, 142.91 90.06 4.30 74
3 01/07/2014 06:39:04 -71.46,-101.20 86.26 01/07/2014 06:38:33 -71.46,-101.21 86.25 0.39 31
4 01/07/2014 07:27:38 68.50, 70.63 90.76 01/07/2014 07:28:43 68.50, 70.65 90.76 0.78 65
5 01/09/2014 11:23:22 -71.66,-172.59 86.34 01/09/2014 11:22:42 -71.66,-172.58 86.34 0.39 40
6 01/09/2014 12:12:04 69.16, -1.26 91.12 01/09/2014 12:13:01 69.16, -1.28 91.12 0.80 57
7 01/11/2014 16:07:45 -72.16, 115.48 86.15 01/11/2014 16:06:57 -72.17, 115.43 86.13 1.70 48
8 01/11/2014 16:56:22 69.41, -72.64 91.03 01/11/2014 16:57:11 69.41, -72.64 91.04 0.20 49
9 01/13/2014 20:52:01 -72.33, 44.13 86.34 01/13/2014 20:51:05 -72.33, 44.11 86.32 1.00 56
10 01/13/2014 21:40:47 70.08,-144.61 91.35 01/13/2014 21:41:29 70.09,-144.67 91.36 2.42 42
11 01/16/2014 01:36:12 -72.26, -26.79 86.80 01/16/2014 01:35:08 -72.25, -26.72 86.81 2.52 64




NCC Satellite Simultaneous Nadir Overpasses (SNOs) Prediction Service
